When you browse on this site, cookies collect data to enhance your experience and personalize the content and advertising you see.
Visit our Privacy Policy to learn more. By continuing to use the site, you agree to this use of cookies and data.
  • In Germany
  • List of Countries
  • For 7 days
  • Water Temperature
  • Weather Map
  • Weather Widgets
  • user-avatar
    Login

    Hourly Weather Lubango

    Today, 23 September, Monday

    Time Temperature Precipitation Wind Pressure Humidity
    00:00 +16°C° 0 mm 1 mps 608 mmHg 51%
    01:00 +16°C° 0 mm 1 mps 608 mmHg 51%
    02:00 +15°C° 0 mm 1 mps 608 mmHg 49%
    03:00 +15°C° 0 mm 2 mps 607 mmHg 47%
    04:00 +15°C° 0 mm 2 mps 607 mmHg 45%
    05:00 +16°C° 0 mm 2 mps 608 mmHg 40%
    06:00 +17°C° 0 mm 3 mps 609 mmHg 34%
    07:00 +19°C° 0 mm 3 mps 610 mmHg 28%
    08:00 +22°C° 0 mm 3 mps 611 mmHg 23%
    09:00 +26°C° 0 mm 3 mps 612 mmHg 18%
    10:00 +30°C° 0 mm 4 mps 613 mmHg 12%
    11:00 +32°C° 0 mm 4 mps 612 mmHg 11%
    12:00 +33°C° 0 mm 3 mps 612 mmHg 10%
    13:00 +34°C° 0 mm 3 mps 612 mmHg 9%
    14:00 +33°C° 0 mm 3 mps 611 mmHg 11%
    15:00 +33°C° 0 mm 3 mps 611 mmHg 13%
    16:00 +31°C° 0 mm 3 mps 610 mmHg 15%
    17:00 +27°C° 0 mm 3 mps 609 mmHg 32%
    18:00 +21°C° 0 mm 2 mps 608 mmHg 48%
    19:00 +16°C° 0 mm 1 mps 607 mmHg 65%
    20:00 +16°C° 0 mm 1 mps 607 mmHg 65%
    21:00 +15°C° 0 mm 1 mps 608 mmHg 65%
    22:00 +15°C° 0 mm 1 mps 608 mmHg 65%
    23:00 +15°C° 0 mm 1 mps 608 mmHg 63%

    Tomorrow, 24 September, Tuesday

    Time Temperature Precipitation Wind Pressure Humidity
    00:00 +15°C° 0 mm 1 mps 608 mmHg 61%
    01:00 +15°C° 0 mm 1 mps 608 mmHg 59%
    02:00 +15°C° 0 mm 1 mps 608 mmHg 53%
    03:00 +16°C° 0 mm 1 mps 608 mmHg 48%
    04:00 +15°C° 0 mm 0 mps 608 mmHg 43%
    05:00 +18°C° 0 mm 1 mps 608 mmHg 40%
    06:00 +19°C° 0 mm 1 mps 609 mmHg 38%
    07:00 +20°C° 0 mm 1 mps 610 mmHg 36%
    08:00 +23°C° 0 mm 2 mps 611 mmHg 30%
    09:00 +26°C° 0 mm 3 mps 612 mmHg 25%
    10:00 +30°C° 0 mm 3 mps 613 mmHg 19%
    11:00 +30°C° 0 mm 3 mps 612 mmHg 18%
    12:00 +30°C° 0 mm 3 mps 612 mmHg 18%
    13:00 +31°C° 0 mm 3 mps 611 mmHg 17%
    14:00 +31°C° 0 mm 3 mps 611 mmHg 17%
    15:00 +31°C° 0 mm 3 mps 611 mmHg 17%
    16:00 +31°C° 0 mm 3 mps 611 mmHg 16%
    17:00 +27°C° 0 mm 2 mps 610 mmHg 32%
    18:00 +21°C° 0 mm 2 mps 609 mmHg 48%
    19:00 +18°C° 0 mm 1 mps 608 mmHg 64%
    20:00 +16°C° 0 mm 1 mps 608 mmHg 67%
    21:00 +15°C° 0 mm 1 mps 608 mmHg 69%
    22:00 +15°C° 0 mm 1 mps 608 mmHg 72%
    23:00 +14°C° 0 mm 1 mps 608 mmHg 69%

    Day after tomorrow, 25 September, Wednesday

    Time Temperature Precipitation Wind Pressure Humidity
    00:00 +14°C° 0 mm 1 mps 608 mmHg 66%
    01:00 +14°C° 0 mm 1 mps 608 mmHg 63%
    02:00 +14°C° 0 mm 1 mps 608 mmHg 60%
    03:00 +14°C° 0 mm 1 mps 608 mmHg 56%
    04:00 +15°C° 0 mm 1 mps 608 mmHg 53%
    05:00 +16°C° 0 mm 1 mps 608 mmHg 48%
    06:00 +18°C° 0 mm 1 mps 609 mmHg 43%
    07:00 +18°C° 0 mm 2 mps 610 mmHg 37%
    08:00 +22°C° 0 mm 3 mps 611 mmHg 29%
    09:00 +26°C° 0 mm 4 mps 612 mmHg 21%
    10:00 +30°C° 0 mm 5 mps 613 mmHg 12%
    11:00 +32°C° 0 mm 5 mps 613 mmHg 12%
    12:00 +33°C° 0 mm 5 mps 613 mmHg 11%
    13:00 +34°C° 0 mm 5 mps 612 mmHg 10%
    14:00 +34°C° 0 mm 5 mps 612 mmHg 10%
    15:00 +34°C° 0 mm 4 mps 611 mmHg 11%
    16:00 +33°C° 0 mm 4 mps 611 mmHg 12%
    17:00 +27°C° 0 mm 3 mps 610 mmHg 29%
    18:00 +21°C° 0 mm 3 mps 608 mmHg 47%
    19:00 +16°C° 0 mm 2 mps 607 mmHg 65%
    20:00 +16°C° 0 mm 2 mps 607 mmHg 63%
    21:00 +15°C° 0 mm 1 mps 608 mmHg 61%
    22:00 +15°C° 0 mm 1 mps 608 mmHg 58%
    23:00 +15°C° 0 mm 1 mps 608 mmHg 55%

    26 September, Thursday

    Time Temperature Precipitation Wind Pressure Humidity
    00:00 +15°C° 0 mm 2 mps 608 mmHg 51%
    01:00 +15°C° 0 mm 2 mps 608 mmHg 48%
    02:00 +15°C° 0 mm 2 mps 608 mmHg 44%
    03:00 +15°C° 0 mm 2 mps 608 mmHg 41%
    04:00 +14°C° 0 mm 3 mps 608 mmHg 38%
    05:00 +15°C° 0 mm 4 mps 608 mmHg 35%
    06:00 +17°C° 0 mm 4 mps 609 mmHg 32%
    07:00 +17°C° 0 mm 5 mps 610 mmHg 29%
    08:00 +21°C° 0 mm 6 mps 611 mmHg 26%
    09:00 +24°C° 0 mm 6 mps 612 mmHg 23%
    10:00 +28°C° 0 mm 7 mps 612 mmHg 20%
    11:00 +30°C° 0 mm 6 mps 612 mmHg 18%
    12:00 +33°C° 0 mm 5 mps 612 mmHg 15%
    13:00 +34°C° 0 mm 4 mps 612 mmHg 13%
    14:00 +34°C° 0 mm 4 mps 611 mmHg 14%
    15:00 +33°C° 0 mm 4 mps 611 mmHg 15%
    16:00 +31°C° 0 mm 3 mps 610 mmHg 16%
    17:00 +27°C° 0 mm 3 mps 609 mmHg 31%
    18:00 +23°C° 0 mm 2 mps 609 mmHg 46%
    19:00 +18°C° 0 mm 1 mps 608 mmHg 61%
    20:00 +18°C° 0 mm 1 mps 608 mmHg 62%
    21:00 +16°C° 0 mm 1 mps 608 mmHg 63%
    22:00 +15°C° 0 mm 0 mps 609 mmHg 63%
    23:00 +16°C° 0 mm 1 mps 609 mmHg 64%

    27 September, Friday

    Time Temperature Precipitation Wind Pressure Humidity
    00:00 +15°C° 0 mm 1 mps 608 mmHg 65%
    01:00 +15°C° 0 mm 1 mps 608 mmHg 66%
    02:00 +15°C° 0 mm 1 mps 608 mmHg 66%
    03:00 +15°C° 0 mm 1 mps 608 mmHg 65%
    04:00 +14°C° 0 mm 1 mps 608 mmHg 65%
    05:00 +15°C° 0 mm 1 mps 609 mmHg 60%
    06:00 +16°C° 0 mm 2 mps 610 mmHg 56%
    07:00 +17°C° 0 mm 2 mps 610 mmHg 51%
    08:00 +20°C° 0 mm 3 mps 611 mmHg 43%
    09:00 +24°C° 0 mm 3 mps 612 mmHg 36%
    10:00 +27°C° 0 mm 4 mps 613 mmHg 29%
    11:00 +27°C° 0 mm 3 mps 612 mmHg 28%
    12:00 +28°C° 0 mm 3 mps 612 mmHg 28%
    13:00 +28°C° 0 mm 2 mps 611 mmHg 27%
    14:00 +28°C° 0 mm 2 mps 611 mmHg 29%
    15:00 +27°C° 0 mm 3 mps 610 mmHg 31%
    16:00 +26°C° 0 mm 3 mps 609 mmHg 33%
    17:00 +22°C° 0 mm 3 mps 609 mmHg 47%
    18:00 +19°C° 0 mm 2 mps 608 mmHg 62%
    19:00 +16°C° 0 mm 2 mps 608 mmHg 76%
    20:00 +15°C° 0 mm 1 mps 608 mmHg 80%
    21:00 +14°C° 0 mm 1 mps 608 mmHg 84%
    22:00 +12°C° 0 mm 0 mps 608 mmHg 87%
    23:00 +14°C° 0 mm 1 mps 608 mmHg 83%

    28 September, Saturday

    Time Temperature Precipitation Wind Pressure Humidity
    00:00 +14°C° 0 mm 1 mps 608 mmHg 78%
    01:00 +14°C° 0 mm 1 mps 608 mmHg 74%
    02:00 +14°C° 0 mm 1 mps 608 mmHg 70%
    03:00 +14°C° 0 mm 1 mps 607 mmHg 67%
    04:00 +14°C° 0 mm 1 mps 607 mmHg 63%
    05:00 +15°C° 0 mm 1 mps 608 mmHg 56%
    06:00 +16°C° 0 mm 2 mps 609 mmHg 50%
    07:00 +17°C° 0 mm 2 mps 609 mmHg 43%
    08:00 +20°C° 0 mm 2 mps 610 mmHg 34%
    09:00 +24°C° 0 mm 2 mps 611 mmHg 24%
    10:00 +28°C° 0 mm 2 mps 612 mmHg 15%
    11:00 +29°C° 0 mm 2 mps 612 mmHg 14%
    12:00 +30°C° 0 mm 2 mps 612 mmHg 13%
    13:00 +31°C° 0 mm 2 mps 611 mmHg 12%
    14:00 +30°C° 0 mm 3 mps 611 mmHg 14%
    15:00 +30°C° 0 mm 3 mps 610 mmHg 16%
    16:00 +29°C° 0 mm 3 mps 609 mmHg 18%
    17:00 +25°C° 0 mm 3 mps 608 mmHg 34%
    18:00 +20°C° 0 mm 3 mps 607 mmHg 51%
    19:00 +16°C° 0 mm 2 mps 606 mmHg 68%
    20:00 +15°C° 0 mm 2 mps 607 mmHg 69%
    21:00 +14°C° 0 mm 1 mps 607 mmHg 71%
    22:00 +13°C° 0 mm 1 mps 607 mmHg 73%
    23:00 +13°C° 0 mm 1 mps 607 mmHg 69%
    Show more